Weather History for Frankfort, KY

Change the Weather History Date:

Saturday, April 20, 2013

  Actual Average Record
Temperature  
Mean Temperature 44 °F 57 °F  
Max Temperature 55 °F 69 °F 89 °F (1915)
Min Temperature 32 °F 45 °F 26 °F (1983)
Degree Days  
Heating Degree Days 21 9  
Month to date heating degree days 216 240  
Since 1 July heating degree days 4570 4504  
Cooling Degree Days 0 1  
Month to date cooling degree days 19 12  
Year to date cooling degree days 19 14  
Growing Degree Days 0 (Base 50)    
Moisture  
Dew Point 29 °F    
Average Humidity 62    
Maximum Humidity 92    
Minimum Humidity 32    
Precipitation  
Precipitation 0.00 in 0.13 in 1.75 in (1909)
Month to date precipitation 1.75 2.29  
Year to date precipitation 12.58 13.22  
Sea Level Pressure  
Sea Level Pressure 30.22 in    
Wind  
Wind Speed 6 mph (West)    
Max Wind Speed 14 mph    
Max Gust Speed 21 mph    
Visibility 10 miles    
Events      
T = Trace of Precipitation, MM = Missing Value Source: NWS Daily Summary

Daily Weather History Graph

Daily Weather History Graph

Search for Another Location

Airport:

Trip Planner

Search our weather history database for the weather conditions in past years. The results will help you decide how hot, cold, wet, or windy it might be!

Date:

Astronomy

Apr. 20, 2013 Rise Set
Actual Time 6:56 AM EDT 8:20 PM EDT
Civil Twilight 6:29 AM EDT 8:48 PM EDT
Nautical Twilight 5:56 AM EDT 9:21 PM EDT
Astronomical Twilight 5:21 AM EDT 9:56 PM EDT
Moon 3:08 PM EDT (4/20) 3:40 AM EDT (4/20)
Length of Visible Light 14h 19m
Length of Day
13h 24m
Waxing Gibbous, 71% of the Moon is Illuminated
Apr 20
Waxing Gibbous
Apr 25
Full
May 2
Last Quarter
May 9
New
May 18
First Quarter

Hourly Weather History & Observations

Time (EDT) Temp. Windchill Dew Point Humidity Pressure Visibility Wind Dir Wind Speed Gust Speed Precip Events Conditions
12:53 AM 36.0 °F 31.1 °F 30.9 °F 82% 30.07 in 10.0 mi SW 5.8 mph - N/A   Clear
1:53 AM 36.0 °F 30.3 °F 32.0 °F 86% 30.08 in 10.0 mi SW 6.9 mph - N/A   Clear
2:53 AM 35.1 °F 30.1 °F 30.9 °F 85% 30.08 in 10.0 mi SW 5.8 mph - N/A   Clear
3:53 AM 36.0 °F 30.3 °F 32.0 °F 86% 30.08 in 10.0 mi SW 6.9 mph - N/A   Clear
4:53 AM 35.1 °F 27.9 °F 30.9 °F 85% 30.10 in 10.0 mi SW 9.2 mph - N/A   Clear
5:53 AM 34.0 °F 27.2 °F 30.9 °F 89% 30.11 in 10.0 mi SW 8.1 mph - N/A   Clear
6:53 AM 32.0 °F 26.4 °F 30.0 °F 92% 30.13 in 10.0 mi SW 5.8 mph - N/A   Clear
7:53 AM 35.1 °F 32.2 °F 32.0 °F 89% 30.17 in 10.0 mi WSW 3.5 mph - N/A   Clear
8:53 AM 41.0 °F 37.1 °F 34.0 °F 76% 30.19 in 10.0 mi West 5.8 mph - N/A   Clear
9:53 AM 44.1 °F 42.5 °F 34.0 °F 68% 30.21 in 10.0 mi Variable 3.5 mph - N/A   Clear
10:53 AM 46.0 °F 41.9 °F 30.0 °F 54% 30.24 in 10.0 mi WNW 8.1 mph 17.3 mph N/A   Partly Cloudy
11:53 AM 48.0 °F - 28.9 °F 48% 30.26 in 10.0 mi WNW 10.4 mph 17.3 mph N/A   Partly Cloudy
12:53 PM 48.9 °F - 28.0 °F 44% 30.26 in 10.0 mi West 10.4 mph - N/A   Partly Cloudy
1:53 PM 52.0 °F - 28.0 °F 40% 30.25 in 10.0 mi NW 8.1 mph - N/A   Clear
2:53 PM 53.1 °F - 25.0 °F 34% 30.25 in 10.0 mi WSW 9.2 mph - N/A   Clear
3:53 PM 53.1 °F - 24.1 °F 32% 30.25 in 10.0 mi West 6.9 mph - N/A   Partly Cloudy
4:53 PM 54.0 °F - 25.0 °F 33% 30.26 in 10.0 mi Variable 4.6 mph - N/A   Partly Cloudy
5:53 PM 54.0 °F - 25.0 °F 33% 30.26 in 10.0 mi Calm Calm - N/A   Clear
6:53 PM 54.0 °F - 24.1 °F 31% 30.27 in 10.0 mi North 5.8 mph - N/A   Partly Cloudy
7:53 PM 51.1 °F - 23.0 °F 33% 30.28 in 10.0 mi NNW 5.8 mph - N/A   Clear
8:53 PM 45.0 °F - 28.9 °F 53% 30.30 in 10.0 mi Calm Calm - N/A   Clear
9:53 PM 46.9 °F - 25.0 °F 42% 30.33 in 10.0 mi North 3.5 mph - N/A   Clear
10:53 PM 45.0 °F 41.8 °F 27.0 °F 49% 30.36 in 10.0 mi NNE 5.8 mph - N/A   Clear
11:53 PM 44.1 °F 40.1 °F 27.0 °F 51% 30.37 in 10.0 mi NNE 6.9 mph - N/A   Clear